{"data":{"norad_id":45985,"intl_designator":"2020-053A","name":"EXPRESS 103","alt_names":[],"object_type":"PAYLOAD","status":"ACTIVE","operator":null,"country":"CIS","launch_date":"2020-07-30","launch_site_code":"TYMSC","launch_vehicle":null,"mission":null,"orbit_class":"UNKNOWN","rcs_meters":null,"size_class":null,"mass_kg":null,"dimensions":null,"purposes":["comms"],"wikipedia_slug":null,"has_3d_model":false,"image_url":null,"decayed_at":null,"tle_current":{"epoch":"2026-09-19T22:33:41.655744Z","epoch_age_seconds":74044,"freshness":"FRESH","line1":"1 45985U 20053A   26262.94006546 -.00000285  00000+0  00000+0 0  9997","line2":"2 45985   0.0376 259.4495 0001277 200.4653 333.8553  1.00272629 22591","mean_motion":1.00272629,"eccentricity":0.0001277,"inclination_deg":0.0376,"raan_deg":259.4495,"arg_perigee_deg":200.4653,"mean_anomaly_deg":333.8553,"bstar":0,"rev_number":2259,"period_min":1436.0848163261,"perigee_km":35780.973952955,"apogee_km":35791.74276507,"semimajor_km":42164.495359012,"source":"CELESTRAK","updated_at":"2026-09-20T09:00:35.294471Z"}}}